Regional Weather Roundup
Issued by NWS

Home | Current Version | Previous Version | Text Only | Print | Product List | Glossary On
Versions: 1 2 3 4 5 6 7 8 9 10 11 12 13 14 15 16 17 18 19 20 21 22 23 24 25 26 27 28 29 30 31 32 33 34 35 36 37 38 39 40 41 42 43 44 45 46 47 48 49 50
000
ASUS45 KABQ 260510
RWRNM
NEW MEXICO REGIONAL WEATHER ROUNDUP
NATIONAL WEATHER SERVICE ALBUQUERQUE NM
1100 PM MDT WED MAY 25 2016

NOTE: "FAIR" MEANS FEW OR NO CLOUDS BELOW 12,000 FEET AGL WITH NO
       SIGNIFICANT WEATHER OR OBSTRUCTIONS TO VISION.

      THIS PRODUCT IS RELEASED AS TWO VERSIONS.  ONE VERSION NEAR
      THE TOP OF THE HOUR CONTAINING PRELIMINARY DATA FROM ALBUQUERQUE
      AND OTHER STATIONS.  A FINAL VERSION WITH ADDITIONAL DATA IS
      ISSUED ABOUT 10 MINUTES AFTER THE HOUR.

NMZ501-503-504-510>518-260600-
NORTHWEST PLATEAU/NORTHCENTRAL MOUNTAINS

CITY           SKY/WX    TMP DP  RH WIND       PRES   REMARKS
FARMINGTON     FAIR      60  12  15 W10       29.97S
LOS ALAMOS     FAIR      59  21  22 CALM      30.10S
SANTA FE       FAIR      55  20  25 N7        30.04R
TAOS           FAIR      54  19  26 S6        30.11S
ANGEL FIRE     MOCLDY    41  24  51 S3        30.18F

$$
NMZ402-403-502-505>509-260600-
WESTCENTRAL MOUNTAINS/SOUTHWEST MOUNTAINS

CITY           SKY/WX    TMP DP  RH WIND       PRES   REMARKS
GALLUP         FAIR      54  15  21 SW5       30.07R
GRANTS         FAIR      53  16  22 SE3       30.10R
SILVER CITY      N/A     64  16  15 W9        30.09R

$$
NMZ407-409-411-412-260600-
SOUTHERN DESERTS

CITY           SKY/WX    TMP DP  RH WIND       PRES   REMARKS
LORDSBURG      FAIR      70  18  13 SW13      30.01R
DEMING         FAIR      73  16  11 W14       30.00R
LAS CRUCES     FAIR      69   9   9 SW12      30.02R
HOLLOMAN AFB   FAIR      70  13  11 SW12      29.96R
ALAMOGORDO     FAIR      72  14  11 S8        29.98R
T OR C         FAIR      70  15  12 SW8       29.99R

$$
NMZ519>523-260600-
CENTRAL VALLEYS/CENTRAL HIGHLANDS

CITY           SKY/WX    TMP DP  RH WIND       PRES   REMARKS
ALBUQUERQUE    FAIR      69  13  11 SW5       29.98S
DOUBLE EAGLE   FAIR      59  15  17 W10       30.03R
MORIARTY ARPT  FAIR      47  18  31 S6        30.06R
CLINES CORNERS FAIR      57  12  17 SW16      30.08S
BELEN          FAIR      64  13  13 W9        29.99R
SOCORRO        FAIR      62  20  20 SE5       29.98R

$$
NMZ524>526-539-540-260600-
SOUTHCENTRAL MOUNTAINS

CITY           SKY/WX    TMP DP  RH WIND       PRES   REMARKS
RUIDOSO          N/A     59  16  18 S9        30.15S

$$
NMZ527>531-260600-
NORTHEAST HIGHLANDS/NORTHEAST PLAINS

CITY           SKY/WX    TMP DP  RH WIND       PRES   REMARKS
LAS VEGAS      FAIR      55  18  23 S12       30.07S
RATON          FAIR      49  19  30 NE8       30.03R
CLAYTON        FAIR      59  23  25 W12       29.96R

$$
NMZ532>537-260600-
EASTCENTRAL PLAINS

CITY           SKY/WX    TMP DP  RH WIND       PRES   REMARKS
TUCUMCARI      FAIR      62  26  25 W8        29.91F
CANNON AFB     FAIR      63  29  27 SW1       29.97S
CLOVIS AIRPORT FAIR      63  28  27 W9        29.96F

$$
NMZ028-029-538-260600-
SOUTHEAST PLAINS

CITY           SKY/WX    TMP DP  RH WIND       PRES   REMARKS
ROSWELL        FAIR      71  26  18 SW10      29.91S
ARTESIA        FAIR      75  28  17 SW14      29.92R
CARLSBAD       FAIR      83  37  19 SE12      29.90R
HOBBS          FAIR      81  48  32 S16G35    29.96R


$$




USA.gov is the U.S. government's official web portal to all federal, state and local government web resources and services.